W0RMT-13 Weather Reports


time (UTC)temp
C
wind
direction
speed
KPH
gust
KPH
rain 1hr
cm
rain 24hr
cm
rain mn
cm
humidity
%
barometer
mb
20230325065800 -1 137 0.0 3.2 0.00 0.00 0.00 96 1005.5
20230325065300 -1 129 0.0 3.2 0.00 0.00 0.00 95 1005.8
20230325064911 -1 229 0.0 3.2 0.00 0.00 0.00 95 1005.8
20230325064759 -1 177 0.0 3.2 0.00 0.00 0.00 95 1005.8
20230325064226 -1 131 0.0 12.9 0.00 0.00 0.00 95 1005.8
20230325063851 -1 217 0.0 12.9 0.00 0.00 0.00 95 1006.3
20230325063659 -1 120 0.0 12.9 0.00 0.00 0.00 95 1005.8
20230325063200 -1 258 1.6 3.2 0.00 0.00 0.00 95 1006.3
20230325062829 0 200 0.0 0.0 0.00 0.00 0.00 95 1006.3
20230325062614 0 256 0.0 8.0 0.00 0.00 0.00 95 1006.3
20230325062051 0 212 0.0 12.9 0.00 0.00 0.00 95 1006.3
20230325061831 0 340 3.2 12.9 0.00 0.00 0.00 94 1006.3
20230325061525 0 238 0.0 12.9 0.00 0.00 0.00 94 1006.3
20230325060935 1 283 1.6 16.1 0.00 0.00 0.00 93 1006.3
20230325060815 1 275 3.2 20.9 0.00 0.00 0.00 93 1006.3
20230325060411 1 324 12.9 20.9 0.00 0.00 0.00 91 1006.7
20230325055853 2 356 11.3 20.9 0.00 0.00 0.00 87 1006.3
20230325055753 2 338 9.7 20.9 0.00 0.00 0.00 86 1006.7
20230325055332 2 203 1.6 12.9 0.00 0.00 0.00 79 1006.3
20230325054826 2 292 4.8 8.0 0.00 0.00 0.00 70 1006.3
20230325054738 2 273 8.0 8.0 0.00 0.00 0.00 69 1006.3
20230325054533 2 248 1.6 8.0 0.00 0.00 0.00 64 1005.8
20230325053759 2 262 0.0 8.0 0.00 0.00 0.00 63 1005.8
20230325053711 2 247 0.0 8.0 0.00 0.00 0.00 63 1005.8
20230325053259 2 303 1.6 8.0 0.00 0.00 0.00 63 1005.8
20230325052717 2 205 0.0 3.2 0.00 0.00 0.00 63 1005.5
20230325052651 2 194 0.0 3.2 0.00 0.00 0.00 63 1005.5
20230325052159 2 191 0.0 0.0 0.00 0.00 0.00 64 1005.8
20230325051657 2 191 0.0 0.0 0.00 0.00 0.00 64 1005.8
20230325051629 2 204 0.0 0.0 0.00 0.00 0.00 64 1005.8
20230325051132 2 241 0.0 3.2 0.00 0.00 0.00 64 1005.8
20230325050614 2 133 0.0 3.2 0.00 0.00 0.00 64 1005.8
20230325050059 2 179 0.0 3.2 0.00 0.00 0.00 64 1005.5
20230325045614 2 167 0.0 3.2 0.00 0.00 0.00 63 1005.5
20230325045547 2 115 0.0 3.2 0.00 0.00 0.00 63 1005.5
20230325045022 2 98 3.2 3.2 0.00 0.00 0.00 62 1005.5
20230325044559 2 169 0.0 8.0 0.00 0.00 0.00 61 1005.8
20230325044432 2 141 0.0 8.0 0.00 0.00 0.00 61 1005.5
20230325043931 2 162 0.0 8.0 0.00 0.00 0.00 60 1005.5
20230325043531 2 116 0.0 8.0 0.00 0.00 0.00 60 1005.8
20230325043359 2 91 0.0 8.0 0.00 0.00 0.00 60 1005.5
20230325042900 3 163 0.0 8.0 0.00 0.00 0.00 60 1005.5
20230325042630 3 115 0.0 8.0 0.00 0.00 0.00 60 1005.8
20230325042511 3 170 0.0 3.2 0.00 0.00 0.00 60 1005.5
20230325041853 3 76 0.0 8.0 0.00 0.00 0.00 59 1005.8
20230325041459 3 172 0.0 8.0 0.00 0.00 0.00 59 1005.8
20230325041328 3 100 0.0 8.0 0.00 0.00 0.00 59 1005.5
20230325040759 3 95 1.6 16.1 0.00 0.00 0.00 59 1005.5
20230325040457 3 156 0.0 16.1 0.00 0.00 0.00 59 1005.8
20230325040259 3 51 8.0 16.1 0.00 0.00 0.00 59 1005.8
20230325035731 3 103 0.0 12.9 0.00 0.00 0.00 58 1005.5
20230325035431 3 78 3.2 8.0 0.00 0.00 0.00 57 1005.5
20230325035220 3 200 0.0 12.9 0.00 0.00 0.00 57 1005.5
20230325034656 4 95 6.4 12.9 0.00 0.00 0.00 55 1005.5
20230325034414 4 55 4.8 12.9 0.00 0.00 0.00 54 1005.5
20230325034133 4 61 3.2 8.0 0.00 0.00 0.00 53 1005.5
20230325033630 4 84 3.2 12.9 0.00 0.00 0.00 51 1005.5
20230325033359 4 86 4.8 16.1 0.00 0.00 0.00 50 1005.5
20230325033342 5 219 3.2 16.1 0.00 0.00 0.00 49 1005.5
20230325032559 5 165 0.0 16.1 0.00 0.00 0.00 45 1005.5
20230325032400 5 60 8.0 12.9 0.00 0.00 0.00 46 1005.5
20230325032022 5 134 0.0 12.9 0.00 0.00 0.00 45 1005.5
20230325031704 5 85 1.6 8.0 0.00 0.00 0.00 42 1005.5
20230325031359 5 49 6.4 8.0 0.00 0.00 0.00 42 1005.5
20230325030931 5 226 3.2 8.0 0.00 0.00 0.00 43 1005.0
20230325030400 5 176 1.6 24.1 0.00 0.00 0.00 44 1005.0
20230325025859 5 286 6.4 24.1 0.00 0.00 0.00 45 1005.5
20230325025351 5 78 3.2 3.2 0.00 0.00 0.00 37 1005.0
20230325025323 5 112 3.2 3.2 0.00 0.00 0.00 38 1005.0
20230325024826 5 107 1.6 3.2 0.00 0.00 0.00 38 1005.0
20230325024259 5 179 0.0 3.2 0.00 0.00 0.00 35 1005.0
20230325023759 5 200 0.0 3.2 0.00 0.00 0.00 35 1004.7
20230325023300 4 187 0.0 0.0 0.00 0.00 0.00 37 1004.7
20230325022718 4 195 0.0 0.0 0.00 0.00 0.00 37 1004.7
20230325022430 5 182 0.0 0.0 0.00 0.00 0.00 38 1004.7
20230325022305 5 182 0.0 0.0 0.00 0.00 0.00 37 1004.7
20230325021656 5 181 0.0 0.0 0.00 0.00 0.00 36 1004.7
20230325021403 5 181 0.0 0.0 0.00 0.00 0.00 36 1004.3
20230325021238 5 181 0.0 0.0 0.00 0.00 0.00 36 1004.3
20230325020902 5 181 0.0 0.0 0.00 0.00 0.00 36 1004.7
20230325020342 5 181 0.0 0.0 0.00 0.00 0.00 35 1004.7
20230325020216 5 181 0.0 0.0 0.00 0.00 0.00 36 1004.3
20230325015559 5 182 0.0 0.0 0.00 0.00 0.00 35 1004.3
20230325015159 5 182 0.0 0.0 0.00 0.00 0.00 36 1004.3
20230325015021 5 182 0.0 0.0 0.00 0.00 0.00 35 1004.3
20230325014431 5 181 0.0 0.0 0.00 0.00 0.00 34 1004.3
20230325014123 5 179 0.0 0.0 0.00 0.00 0.00 34 1004.7
20230325013900 5 152 0.0 0.0 0.00 0.00 0.00 34 1004.3
20230325013359 5 178 0.0 0.0 0.00 0.00 0.00 34 1004.3
20230325013059 6 179 0.0 0.0 0.00 0.00 0.00 34 1004.3
20230325012839 6 175 0.0 0.0 0.00 0.00 0.00 34 1004.3
20230325012323 6 146 0.0 0.0 0.00 0.00 0.00 33 1004.3
20230325012042 6 182 0.0 0.0 0.00 0.00 0.00 33 1004.3
20230325011759 6 172 0.0 0.0 0.00 0.00 0.00 33 1004.3
20230325011259 6 178 0.0 0.0 0.00 0.00 0.00 34 1004.3
20230325011039 6 173 0.0 0.0 0.00 0.00 0.00 33 1004.3
20230325010759 6 113 0.0 0.0 0.00 0.00 0.00 32 1004.3
20230325010214 6 171 0.0 0.0 0.00 0.00 0.00 32 1004.7
20230325010025 6 131 0.0 0.0 0.00 0.00 0.00 32 1004.7
20230325005650 7 166 0.0 0.0 0.00 0.00 0.00 32 1004.3
20230325005125 7 167 0.0 3.2 0.00 0.00 0.00 32 1004.3
20230325004959 7 166 0.0 3.2 0.00 0.00 0.00 32 1004.3
20230325004559 7 192 0.0 3.2 0.00 0.00 0.00 32 1004.3
20230325004038 7 184 0.0 8.0 0.00 0.00 0.00 31 1004.7
20230325003959 7 119 1.6 8.0 0.00 0.00 0.00 31 1004.3
20230325003459 7 35 0.0 8.0 0.00 0.00 0.00 31 1004.3
20230325003000 7 140 1.6 8.0 0.00 0.00 0.00 29 1004.7
20230325002923 7 75 3.2 8.0 0.00 0.00 0.00 30 1004.3
20230325002426 7 188 0.0 3.2 0.00 0.00 0.00 30 1004.3
20230325002130 7 131 1.6 3.2 0.00 0.00 0.00 30 1004.7
20230325002003 7 131 1.6 3.2 0.00 0.00 0.00 30 1004.7
20230325001359 7 169 0.0 3.2 0.00 0.00 0.00 30 1004.7
20230325000859 7 140 0.0 3.2 0.00 0.00 0.00 30 1004.7
20230325000403 7 171 0.0 3.2 0.00 0.00 0.00 30 1004.7
20230325000400 7 158 0.0 3.2 0.00 0.00 0.00 30 1004.7
20230324235839 7 176 0.0 3.2 0.00 0.00 0.00 30 1004.7
20230324235359 8 199 0.0 3.2 0.00 0.00 0.00 30 1004.7
20230324234825 8 169 0.0 3.2 0.00 0.00 0.00 30 1004.3
20230324234259 8 111 0.0 3.2 0.00 0.00 0.00 30 1004.3
20230324233800 8 168 0.0 3.2 0.00 0.00 0.00 29 1004.3
20230324233445 8 131 0.0 8.0 0.00 0.00 0.00 29 1004.7
20230324232758 8 172 0.0 8.0 0.00 0.00 0.00 30 1004.7
20230324232650 8 167 0.0 8.0 0.00 0.00 0.00 30 1004.7
20230324232125 8 157 0.0 8.0 0.00 0.00 0.00 29 1004.7
20230324231723 8 187 0.0 3.2 0.00 0.00 0.00 29 1004.7
20230324231535 8 163 0.0 3.2 0.00 0.00 0.00 29 1004.7
20230324231011 9 152 1.6 3.2 0.00 0.00 0.00 29 1004.3
20230324230659 9 85 0.0 8.0 0.00 0.00 0.00 29 1004.3
20230324230459 9 148 1.6 8.0 0.00 0.00 0.00 29 1004.7
20230324225959 9 21 3.2 8.0 0.00 0.00 0.00 28 1004.3
20230324225659 10 181 0.0 3.2 0.00 0.00 0.00 28 1004.7
20230324225459 10 169 0.0 12.9 0.00 0.00 0.00 28 1004.3
20230324224956 10 341 0.0 12.9 0.00 0.00 0.00 27 1004.3
20230324224659 10 239 0.0 12.9 0.00 0.00 0.00 28 1004.3
20230324224432 10 176 0.0 3.2 0.00 0.00 0.00 28 1004.3
20230324223930 10 174 0.0 12.9 0.00 0.00 0.00 28 1004.3
20230324223659 10 185 1.6 12.9 0.00 0.00 0.00 27 1004.3
20230324223411 10 266 0.0 12.9 0.00 0.00 0.00 27 1004.3
20230324222859 10 185 0.0 8.0 0.00 0.00 0.00 25 1004.3
20230324222631 10 323 1.6 8.0 0.00 0.00 0.00 27 1004.3
20230324222355 10 226 0.0 8.0 0.00 0.00 0.00 27 1004.3
20230324221825 10 163 0.0 12.9 0.00 0.00 0.00 27 1004.3
20230324221559 10 88 3.2 12.9 0.00 0.00 0.00 28 1004.3
20230324221259 10 180 0.0 12.9 0.00 0.00 0.00 30 1004.3
20230324220759 10 157 0.0 12.9 0.00 0.00 0.00 27 1004.3
20230324220523 10 61 4.8 12.9 0.00 0.00 0.00 27 1004.3
20230324220259 10 160 0.0 8.0 0.00 0.00 0.00 27 1004.3
20230324215800 10 90 0.0 12.9 0.00 0.00 0.00 26 1004.3
20230324215459 11 96 1.6 12.9 0.00 0.00 0.00 25 1004.3
20230324215239 11 125 0.0 12.9 0.00 0.00 0.00 25 1004.3
20230324214722 11 169 0.0 3.2 0.00 0.00 0.00 24 1004.3
20230324214441 11 140 0.0 3.2 0.00 0.00 0.00 21 1004.3
20230324214159 11 181 0.0 3.2 0.00 0.00 0.00 19 1004.3
20230324213659 12 170 0.0 8.0 0.00 0.00 0.00 17 1004.3
20230324213439 12 161 0.0 8.0 0.00 0.00 0.00 17 1004.3
20230324213159 12 84 3.2 8.0 0.00 0.00 0.00 18 1004.7
20230324212659 12 187 0.0 12.9 0.00 0.00 0.00 23 1004.3
20230324212425 12 254 1.6 12.9 0.00 0.00 0.00 22 1004.3
20230324212117 11 281 0.0 8.0 0.00 0.00 0.00 22 1004.3
20230324211559 11 71 6.4 8.0 0.00 0.00 0.00 20 1004.3
20230324211359 11 118 1.6 8.0 0.00 0.00 0.00 19 1004.3
20230324211056 10 74 1.6 8.0 0.00 0.00 0.00 18 1004.3
20230324210531 10 295 3.2 8.0 0.00 0.00 0.00 21 1004.7
20230324210359 10 276 1.6 8.0 0.00 0.00 0.00 21 1004.3
20230324210030 10 8 3.2 8.0 0.00 0.00 0.00 24 1004.7
20230324205511 10 87 0.0 12.9 0.00 0.00 0.00 24 1004.7
20230324205323 10 87 3.2 12.9 0.00 0.00 0.00 24 1004.7
20230324204958 10 73 4.8 12.9 0.00 0.00 0.00 24 1004.7
20230324204449 10 90 4.8 12.9 0.00 0.00 0.00 23 1004.7
20230324204259 10 68 6.4 8.0 0.00 0.00 0.00 24 1004.7
20230324203925 10 74 1.6 8.0 0.00 0.00 0.00 24 1004.7
20230324203335 10 225 0.0 3.2 0.00 0.00 0.00 22 1005.0
20230324203259 10 191 0.0 3.2 0.00 0.00 0.00 22 1005.0
20230324203042 10 143 0.0 3.2 0.00 0.00 0.00 23 1005.0
20230324202259 11 12 1.6 3.2 0.00 0.00 0.00 23 1005.0
20230324201759 11 175 0.0 3.2 0.00 0.00 0.00 23 1005.0
20230324201225 11 171 0.0 12.9 0.00 0.00 0.00 24 1005.5
20230324200659 12 143 0.0 12.9 0.00 0.00 0.00 25 1005.5
20230324200159 12 87 4.8 20.9 0.00 0.00 0.00 23 1005.5
20230324195659 13 165 0.0 20.9 0.00 0.00 0.00 23 1005.5
20230324195159 13 166 0.0 8.0 0.00 0.00 0.00 22 1005.8
20230324195117 13 70 3.2 8.0 0.00 0.00 0.00 22 1005.5
20230324194600 13 190 0.0 12.9 0.00 0.00 0.00 24 1005.8
20230324194123 12 28 4.8 12.9 0.00 0.00 0.00 23 1005.8
20230324194055 12 43 9.7 12.9 0.00 0.00 0.00 22 1005.8
20230324193532 12 181 0.0 8.0 0.00 0.00 0.00 23 1005.8
20230324193059 12 16 1.6 20.9 0.00 0.00 0.00 23 1006.3
20230324193030 12 131 0.0 20.9 0.00 0.00 0.00 24 1005.8
20230324192500 12 219 14.5 20.9 0.00 0.00 0.00 22 1006.3
20230324192041 12 205 0.0 12.9 0.00 0.00 0.00 24 1006.3
20230324191959 12 227 4.8 12.9 0.00 0.00 0.00 24 1006.3
20230324191422 11 190 8.0 8.0 0.00 0.00 0.00 24 1006.3
20230324191040 11 190 3.2 8.0 0.00 0.00 0.00 24 1006.7
20230324190832 11 215 0.0 8.0 0.00 0.00 0.00 23 1006.7
20230324190331 10 172 0.0 8.0 0.00 0.00 0.00 24 1006.7
20230324190025 10 193 3.2 8.0 0.00 0.00 0.00 23 1006.7
20230324185758 10 266 0.0 8.0 0.00 0.00 0.00 25 1006.7
20230324185511 10 197 0.0 8.0 0.00 0.00 0.00 25 1006.7
20230324184959 10 158 0.0 12.9 0.00 0.00 0.00 26 1007.0
20230324184723 10 97 3.2 12.9 0.00 0.00 0.00 26 1006.7
20230324184159 10 179 0.0 12.9 0.00 0.00 0.00 25 1007.0
20230324183959 10 73 3.2 12.9 0.00 0.00 0.00 26 1007.0
20230324183659 10 57 8.0 12.9 0.00 0.00 0.00 26 1007.0
20230324183431 10 158 0.0 8.0 0.00 0.00 0.00 25 1007.0
20230324182923 10 75 3.2 8.0 0.00 0.00 0.00 25 1007.0
20230324182659 10 277 0.0 8.0 0.00 0.00 0.00 25 1007.0
20230324182118 10 155 3.2 8.0 0.00 0.00 0.00 27 1007.5
20230324181859 10 96 4.8 8.0 0.00 0.00 0.00 26 1007.0
20230324181558 10 252 1.6 8.0 0.00 0.00 0.00 26 1007.0
20230324181056 10 223 3.2 8.0 0.00 0.00 0.00 26 1007.5
20230324180858 10 90 3.2 3.2 0.00 0.00 0.00 26 1007.5
20230324180803 10 171 0.0 8.0 0.00 0.00 0.00 25 1007.5
20230324180031 10 189 0.0 8.0 0.00 0.00 0.00 29 1007.8
20230324175839 10 205 4.8 8.0 0.00 0.00 0.00 26 1007.8
20230324175511 10 89 4.8 8.0 0.00 0.00 0.00 26 1007.5
20230324174946 10 115 0.0 12.9 0.00 0.00 0.00 26 1007.8
20230324174825 10 177 0.0 12.9 0.00 0.00 0.00 25 1008.2
20230324174421 10 244 0.0 12.9 0.00 0.00 0.00 27 1007.8
20230324173832 10 198 1.6 12.9 0.00 0.00 0.00 27 1007.8
20230324173758 10 181 0.0 12.9 0.00 0.00 0.00 30 1007.8
20230324173330 10 30 9.7 12.9 0.00 0.00 0.00 28 1007.8
20230324172759 10 159 1.6 12.9 0.00 0.00 0.00 29 1008.2
20230324172259 10 176 0.0 3.2 0.00 0.00 0.00 27 1007.8
20230324171759 10 128 0.0 8.0 0.00 0.00 0.00 28 1008.2
20230324171722 10 130 0.0 8.0 0.00 0.00 0.00 27 1008.2
20230324171456 10 99 3.2 8.0 0.00 0.00 0.00 28 1008.2
20230324170658 10 159 0.0 8.0 0.00 0.00 0.00 27 1008.2
20230324170159 10 235 0.0 8.0 0.00 0.00 0.00 28 1008.2
20230324165659 10 199 0.0 8.0 0.00 0.00 0.00 29 1008.2
20230324165159 9 33 3.2 8.0 0.00 0.00 0.00 31 1008.2
20230324164659 9 113 0.0 8.0 0.00 0.00 0.00 31 1008.2
20230324164430 9 188 0.0 8.0 0.00 0.00 0.00 32 1008.2
20230324163625 9 63 3.2 8.0 0.00 0.00 0.00 34 1008.7
20230324163035 9 211 3.2 3.2 0.00 0.00 0.00 30 1008.7
20230324162559 9 205 0.0 3.2 0.00 0.00 0.00 31 1008.7
20230324162510 9 187 0.0 3.2 0.00 0.00 0.00 31 1008.7
20230324161959 9 147 0.0 3.2 0.00 0.00 0.00 30 1009.0
20230324161517 9 102 1.6 3.2 0.00 0.00 0.00 31 1008.7
20230324161421 9 130 0.0 3.2 0.00 0.00 0.00 31 1008.7
20230324160831 9 176 0.0 3.2 0.00 0.00 0.00 28 1008.7
20230324160456 9 180 0.0 3.2 0.00 0.00 0.00 30 1008.7
20230324160330 9 350 1.6 3.2 0.00 0.00 0.00 31 1008.7
20230324155743 8 155 0.0 3.2 0.00 0.00 0.00 28 1008.7
20230324155431 8 183 0.0 3.2 0.00 0.00 0.00 29 1008.7
20230324155239 8 185 0.0 3.2 0.00 0.00 0.00 28 1009.0
20230324154723 8 185 0.0 0.0 0.00 0.00 0.00 27 1009.0
20230324154413 8 149 0.0 3.2 0.00 0.00 0.00 29 1009.0
20230324154158 8 185 0.0 3.2 0.00 0.00 0.00 33 1008.7
20230324153659 7 148 0.0 3.2 0.00 0.00 0.00 32 1008.7
20230324153359 7 166 0.0 3.2 0.00 0.00 0.00 32 1009.0
20230324153159 7 133 0.0 3.2 0.00 0.00 0.00 31 1008.7
20230324152658 7 174 0.0 3.2 0.00 0.00 0.00 31 1009.0
20230324152359 6 132 0.0 3.2 0.00 0.00 0.00 32 1009.0
20230324152159 6 169 0.0 3.2 0.00 0.00 0.00 32 1009.0
20230324151659 5 163 0.0 3.2 0.00 0.00 0.00 34 1009.0
20230324151400 5 95 0.0 3.2 0.00 0.00 0.00 36 1009.0
20230324151123 5 175 0.0 3.2 0.00 0.00 0.00 37 1009.5
20230324150559 4 219 0.0 3.2 0.00 0.00 0.00 40 1009.0
20230324150359 4 107 0.0 3.2 0.00 0.00 0.00 42 1009.0
20230324150059 3 169 0.0 3.2 0.00 0.00 0.00 42 1009.5
20230324145558 3 146 0.0 3.2 0.00 0.00 0.00 46 1009.5
20230324145323 2 61 3.2 3.2 0.00 0.00 0.00 52 1009.5
20230324145041 2 98 0.0 3.2 0.00 0.00 0.00 49 1009.5
20230324144747 2 79 1.6 3.2 0.00 0.00 0.00 50 1009.5
20230324144258 1 84 0.0 3.2 0.00 0.00 0.00 50 1009.5
20230324143959 1 139 0.0 0.0 0.00 0.00 0.00 44 1009.5
20230324143727 0 189 0.0 0.0 0.00 0.00 0.00 51 1009.0
20230324143259 0 149 0.0 0.0 0.00 0.00 0.00 51 1009.5
20230324142931 0 185 0.0 0.0 0.00 0.00 0.00 54 1009.5
20230324142430 0 167 0.0 0.0 0.00 0.00 0.00 53 1009.5
20230324142239 0 167 0.0 0.0 0.00 0.00 0.00 53 1009.5
20230324141911 0 167 0.0 0.0 0.00 0.00 0.00 56 1009.5
20230324141358 -1 178 0.0 0.0 0.00 0.00 0.00 58 1009.5
20230324141224 -1 179 0.0 0.0 0.00 0.00 0.00 61 1009.5
20230324140822 -1 187 0.0 0.0 0.00 0.00 0.00 65 1009.5
20230324140232 -2 193 0.0 0.0 0.00 0.00 0.00 66 1009.5
20230324140159 -2 191 0.0 0.0 0.00 0.00 0.00 67 1009.5
20230324135713 -2 186 0.0 0.0 0.00 0.00 0.00 70 1009.5
20230324135158 -2 190 0.0 0.0 0.00 0.00 0.00 71 1009.5
20230324134620 -2 192 0.0 0.0 0.00 0.00 0.00 74 1009.8
20230324134122 -3 193 0.0 0.0 0.00 0.00 0.00 77 1009.5
20230324134056 -3 192 0.0 0.0 0.00 0.00 0.00 77 1009.5
20230324133803 -3 181 0.0 0.0 0.00 0.00 0.00 77 1009.5
20230324133059 -3 187 0.0 0.0 0.00 0.00 0.00 76 1009.5
20230324133030 -3 188 0.0 0.0 0.00 0.00 0.00 77 1009.5
20230324132511 -3 197 0.0 0.0 0.00 0.00 0.00 77 1009.5
20230324132059 -3 202 0.0 0.0 0.00 0.00 0.00 77 1009.5
20230324131946 -3 196 0.0 0.0 0.00 0.00 0.00 77 1009.5
20230324131421 -3 187 0.0 0.0 0.00 0.00 0.00 83 1009.5
20230324131059 -3 188 0.0 0.0 0.00 0.00 0.00 85 1009.5
20230324130832 -3 188 0.0 0.0 0.00 0.00 0.00 86 1009.0
20230324130601 -3 189 0.0 0.0 0.00 0.00 0.00 87 1009.5
20230324130041 -3 189 0.0 0.0 0.00 0.00 0.00 88 1009.5
20230324130024 -3 191 0.0 0.0 0.00 0.00 0.00 88 1009.5
20230324125529 -3 194 0.0 0.0 0.00 0.00 0.00 88 1009.5
20230324124943 -3 175 0.0 0.0 0.00 0.00 0.00 87 1009.5
20230324124724 -3 179 0.0 0.0 0.00 0.00 0.00 87 1009.8
20230324124158 -3 165 0.0 0.0 0.00 0.00 0.00 88 1009.8
20230324123917 -3 174 0.0 0.0 0.00 0.00 0.00 90 1009.5
20230324123659 -3 183 0.0 0.0 0.00 0.00 0.00 90 1009.5
20230324123158 -3 186 0.0 0.0 0.00 0.00 0.00 90 1009.5
20230324122855 -3 185 0.0 0.0 0.00 0.00 0.00 90 1009.5
20230324122641 -3 188 0.0 0.0 0.00 0.00 0.00 90 1009.5
20230324122619 -3 161 0.0 3.2 0.00 0.00 0.00 90 1009.5
20230324121830 -3 208 0.0 3.2 0.00 0.00 0.00 90 1009.5
20230324121558 -3 186 0.0 0.0 0.00 0.00 0.00 89 1009.5
20230324121056 -3 188 0.0 0.0 0.00 0.00 0.00 88 1009.8
20230324120759 -3 191 0.0 0.0 0.00 0.00 0.00 88 1009.8
20230324120530 -3 183 0.0 0.0 0.00 0.00 0.00 88 1009.5
20230324120030 -3 190 0.0 0.0 0.00 0.00 0.00 87 1009.5
20230324115758 -3 190 0.0 0.0 0.00 0.00 0.00 87 1009.8
20230324115741 -3 204 0.0 0.0 0.00 0.00 0.00 86 1009.8
20230324115229 -3 194 0.0 0.0 0.00 0.00 0.00 85 1009.8
20230324114759 -3 196 0.0 0.0 0.00 0.00 0.00 85 1009.8
20230324114421 -3 201 0.0 0.0 0.00 0.00 0.00 86 1009.5
20230324114102 -3 196 0.0 0.0 0.00 0.00 0.00 87 1009.8
20230324113739 -3 194 0.0 0.0 0.00 0.00 0.00 88 1009.8
20230324113330 -3 190 0.0 0.0 0.00 0.00 0.00 88 1009.8
20230324112758 -3 188 0.0 0.0 0.00 0.00 0.00 88 1009.8
20230324112717 -3 188 0.0 0.0 0.00 0.00 0.00 88 1009.8
20230324112258 -3 215 0.0 0.0 0.00 0.00 0.00 87 1009.8
20230324111725 -3 233 0.0 0.0 0.00 0.00 0.00 87 1010.2
20230324111655 -3 205 0.0 0.0 0.00 0.00 0.00 87 1010.2
20230324111225 -3 183 0.0 0.0 0.00 0.00 0.00 86 1010.2
20230324110929 -2 182 0.0 0.0 0.00 0.00 0.00 84 1009.8
20230324110630 -2 181 0.0 0.0 0.00 0.00 0.00 84 1009.8
20230324110430 -2 180 0.0 0.0 0.00 0.00 0.00 82 1009.8
20230324105641 -2 177 0.0 0.0 0.00 0.00 0.00 80 1009.8
20230324105558 -2 150 0.0 0.0 0.00 0.00 0.00 81 1010.2
20230324105116 -2 134 0.0 0.0 0.00 0.00 0.00 80 1009.8
20230324104559 -2 190 0.0 0.0 0.00 0.00 0.00 79 1009.8
20230324104056 -1 179 0.0 0.0 0.00 0.00 0.00 78 1009.8
20230324103559 -1 185 0.0 0.0 0.00 0.00 0.00 77 1009.8
20230324103530 -1 188 0.0 0.0 0.00 0.00 0.00 76 1009.8
20230324103029 -2 190 0.0 0.0 0.00 0.00 0.00 75 1009.5
20230324102558 -2 194 0.0 0.0 0.00 0.00 0.00 74 1009.8
20230324102511 -2 196 0.0 0.0 0.00 0.00 0.00 74 1009.8
20230324101958 -2 231 0.0 0.0 0.00 0.00 0.00 75 1009.8
20230324101559 -2 207 0.0 0.0 0.00 0.00 0.00 78 1009.8
20230324101421 -2 194 0.0 0.0 0.00 0.00 0.00 79 1009.8
20230324100831 -2 200 0.0 0.0 0.00 0.00 0.00 82 1009.8
20230324100558 -2 236 0.0 0.0 0.00 0.00 0.00 87 1009.8
20230324100330 -2 202 0.0 0.0 0.00 0.00 0.00 91 1009.8
20230324095758 -3 181 0.0 0.0 0.00 0.00 0.00 94 1009.8
20230324095528 -3 180 0.0 0.0 0.00 0.00 0.00 94 1010.2
20230324095220 -3 171 0.0 0.0 0.00 0.00 0.00 94 1009.8
20230324094720 -3 211 0.0 0.0 0.00 0.00 0.00 94 1010.2
20230324094529 -3 235 0.0 0.0 0.00 0.00 0.00 94 1009.8
20230324094210 -3 186 0.0 0.0 0.00 0.00 0.00 94 1010.2
20230324093700 -3 186 0.0 0.0 0.00 0.00 0.00 94 1009.8
20230324093521 -2 194 0.0 0.0 0.00 0.00 0.00 94 1010.2
20230324093200 -2 183 0.0 0.0 0.00 0.00 0.00 94 1010.2
20230324092921 -2 187 0.0 0.0 0.00 0.00 0.00 94 1010.2
20230324092511 -2 185 0.0 0.0 0.00 0.00 0.00 94 1009.8
20230324092411 -2 184 0.0 0.0 0.00 0.00 0.00 94 1010.2
20230324091630 -2 184 0.0 0.0 0.00 0.00 0.00 94 1010.2
20230324091503 -2 184 0.0 0.0 0.00 0.00 0.00 94 1009.8
20230324091121 -2 184 0.0 0.0 0.00 0.00 0.00 94 1010.2
20230324090612 -2 187 0.0 0.0 0.00 0.00 0.00 94 1010.2
20230324090454 -2 191 0.0 0.0 0.00 0.00 0.00 94 1010.2
20230324090103 -2 186 0.0 0.0 0.00 0.00 0.00 94 1010.2
20230324085602 -2 185 0.0 3.2 0.00 0.00 0.00 94 1010.2
20230324085445 -2 185 0.0 3.2 0.00 0.00 0.00 94 1010.2
20230324085053 -2 194 0.0 3.2 0.00 0.00 0.00 94 1010.2
20230324084553 -2 195 0.0 3.2 0.00 0.00 0.00 95 1010.7
20230324084435 -2 189 0.0 3.2 0.00 0.00 0.00 95 1010.2
20230324084043 -2 191 0.0 0.0 0.00 0.00 0.00 95 1010.7
20230324083544 -2 192 0.0 0.0 0.00 0.00 0.00 95 1010.7
20230324083427 -2 192 0.0 0.0 0.00 0.00 0.00 95 1010.7
20230324083036 -2 192 0.0 0.0 0.00 0.00 0.00 94 1010.7
20230324082526 -2 192 0.0 0.0 0.00 0.00 0.00 94 1010.7
20230324082419 -2 192 0.0 0.0 0.00 0.00 0.00 94 1011.0
20230324082247 -2 192 0.0 0.0 0.00 0.00 0.00 94 1010.7
20230324081508 -2 192 0.0 0.0 0.00 0.00 0.00 94 1010.7
20230324081412 -2 192 0.0 0.0 0.00 0.00 0.00 94 1010.7
20230324081228 -2 200 0.0 0.0 0.00 0.00 0.00 94 1011.0
20230324080448 -2 192 0.0 0.0 0.00 0.00 0.00 94 1011.0
20230324080404 -2 195 0.0 0.0 0.00 0.00 0.00 94 1011.0
20230324075939 -2 187 0.0 0.0 0.00 0.00 0.00 94 1011.0
20230324075700 -2 181 0.0 0.0 0.00 0.00 0.00 94 1011.5
20230324075356 -2 180 0.0 0.0 0.00 0.00 0.00 94 1011.5
20230324074929 -2 180 0.0 0.0 0.00 0.00 0.00 93 1011.0
20230324074418 -2 183 0.0 0.0 0.00 0.00 0.00 93 1011.0
20230324074356 -2 183 0.0 0.0 0.00 0.00 0.00 93 1011.0
20230324073908 -1 183 0.0 0.0 0.00 0.00 0.00 93 1011.0
20230324073348 -1 183 0.0 0.0 0.00 0.00 0.00 93 1011.5
20230324072849 -1 180 0.0 0.0 0.00 0.00 0.00 93 1011.5
20230324072339 -1 180 0.0 0.0 0.00 0.00 0.00 93 1011.5
20230324071830 -1 190 0.0 0.0 0.00 0.00 0.00 93 1011.5
20230324071551 -1 189 0.0 0.0 0.00 0.00 0.00 92 1011.5
20230324071426 -1 189 0.0 0.0 0.00 0.00 0.00 92 1011.5
20230324070821 -1 189 0.0 0.0 0.00 0.00 0.00 92 1011.5
20230324070322 -1 186 0.0 0.0 0.00 0.00 0.00 91 1011.5
20230324070312 -1 187 0.0 0.0 0.00 0.00 0.00 91 1011.5